Weather History for 71039 - November, 2013

Change the Weather History Date:

Monday, November 11, 2013

  Actual Average Record
Temperature  
Mean Temperature 9 °F -  
Max Temperature 18 °F - - ()
Min Temperature 0 °F - - ()
Degree Days  
Heating Degree Days 56    
Moisture  
Dew Point 7 °F    
Average Humidity 84    
Maximum Humidity 92    
Minimum Humidity 69    
Precipitation  
Precipitation 0.02 in - - ()
Sea Level Pressure  
Sea Level Pressure 30.06 in    
Wind  
Wind Speed 3 mph ()    
Max Wind Speed 9 mph    
Max Gust Speed -    
T = Trace of Precipitation, MM = Missing Value Source: Averaged Metar Reports

Daily Weather History Graph

Daily Weather History Graph

Search for Another Location

Airport or City:

Trip Planner

Search our weather history database for the weather conditions in past years. The results will help you decide how hot, cold, wet, or windy it might be!

Date:

Astronomy

Nov. 11, 2013 Rise Set
Actual Time 9:06 AM PST 4:29 PM PST
Civil Twilight 8:14 AM PST 5:22 PM PST
Nautical Twilight 7:19 AM PST 6:17 PM PST
Astronomical Twilight 6:27 AM PST 7:09 PM PST
Moon 2:50 PM PST (11/11) 1:13 AM PST (11/11)
Length of Visible Light 9h 08m
Length of Day
7h 23m
Waxing Gibbous, 67% of the Moon is Illuminated
Nov 11
Waxing Gibbous
Nov 17
Full
Nov 25
Last Quarter
Dec 2
New
Dec 9
First Quarter

Hourly Weather History & Observations

Time (PST) Temp. Windchill Dew Point Humidity Pressure Visibility Wind Dir Wind Speed Gust Speed Precip Events Conditions
12:00 AM 5.9 °F - 3.2 °F 89% 29.94 in - West 1.2 mph - N/A   Unknown
1:00 AM 6.1 °F - 4.1 °F 92% 29.95 in - NNW 2.3 mph - N/A   Unknown
2:00 AM 5.0 °F - 2.3 °F 89% 29.95 in - WNW 1.2 mph - N/A   Unknown
3:00 AM 3.4 °F - 0.7 °F 89% 29.94 in - Calm Calm - N/A   Unknown
4:00 AM 2 °F - -1 °F 83% 29.95 in - Calm Calm - -  
4:00 AM 2.5 °F - -0.6 °F 87% 29.95 in - Calm Calm - N/A   Unknown
5:00 AM 2.8 °F - -0.0 °F 88% 29.96 in - NNW 1.2 mph - N/A   Unknown
6:00 AM 2.8 °F - -0.2 °F 87% 29.98 in - North 1.2 mph - N/A   Unknown
7:00 AM 1.6 °F - -1.5 °F 87% 30.00 in - East 1.2 mph - N/A   Unknown
8:00 AM 0.5 °F - -2.9 °F 85% 30.02 in - NE 1.2 mph - N/A   Unknown
9:00 AM 0.9 °F - -2.2 °F 87% 30.04 in - WNW 2.3 mph - N/A   Unknown
10:00 AM 4 °F - 2 °F 84% 30.06 in - WNW 2.3 mph - -  
10:00 AM 4.3 °F - 1.6 °F 89% 30.06 in - WNW 2.3 mph - N/A   Unknown
11:00 AM 14.9 °F 5.0 °F 11.1 °F 85% 30.07 in - NNW 6.9 mph - N/A   Unknown
12:00 PM 15.8 °F 4.2 °F 11.8 °F 84% 30.08 in - NNW 9.2 mph - N/A   Unknown
1:00 PM 16.5 °F 5.1 °F 11.1 °F 79% 30.10 in - North 9.2 mph - N/A   Unknown
2:00 PM 17.2 °F 8.9 °F 12.0 °F 80% 30.12 in - NW 5.8 mph - N/A   Unknown
3:00 PM 17.8 °F 12.5 °F 12.0 °F 78% 30.13 in - NNW 3.5 mph - N/A   Unknown
4:00 PM 18 °F - 12 °F 69% 30.13 in - WNW 5.8 mph - -  
4:00 PM 17.8 °F 9.6 °F 12.2 °F 79% 30.13 in - WNW 5.8 mph - N/A   Unknown
5:00 PM 17.8 °F 9.6 °F 12.6 °F 80% 30.14 in - NW 5.8 mph - N/A   Unknown
6:00 PM 18.1 °F 7.9 °F 12.6 °F 79% 30.14 in - WNW 8.1 mph - N/A   Unknown
7:00 PM 18.0 °F - 12.9 °F 81% 30.16 in - NW 2.3 mph - N/A   Unknown
8:00 PM 18.1 °F 11.3 °F 12.9 °F 80% 30.14 in - WNW 4.6 mph - N/A   Unknown
9:00 PM 17.4 °F 12.1 °F 13.8 °F 86% 30.15 in - WNW 3.5 mph - N/A   Unknown
10:00 PM 17 °F - 14 °F 81% 30.13 in - West 4.6 mph - -  
10:00 PM 17.2 °F 10.2 °F 13.6 °F 86% 30.13 in - West 4.6 mph - N/A   Unknown
11:00 PM 17.4 °F 8.0 °F 13.8 °F 86% 30.13 in - WNW 6.9 mph - N/A   Unknown